User: anonymous   Login
Location: *
(17.3280°S, 114.7300°W)
Time: 06:44:47
(UTC+00:00)
Language:

BREEZE-M DEB (TANK) - Orbit

View from above orbital plane
View from above orbital plane
View from above satellite
View from above satellite

Ground track
Ground track

The orbit data is extracted from the following two-line orbital elements,

1 38089U 12007C   20299.34393576  .00001098  00000-0  23523-3 0  9996
2 38089  49.6031 330.0737 5047391  69.3910 336.5654  5.53244889174005
Epoch (UTC): 25 October 2020 08:15:16
Eccentricity: 0.5047391
inclination: 49.6031°
perigee height: 310 km
apogee height: 13941 km
right ascension of ascending node: 330.0737°
argument of perigee: 69.3910°
revolutions per day: 5.53244889
mean anomaly at epoch: 336.5654°
orbit number at epoch: 17400

The dashed part of the orbit path shows where the satellite is in the earth's shadow,  

DLR